Torna al catalogo

STARLINK-6053

AttivoComunicazioniVLEO
NORAD 56466·PAYLOAD·🇺🇸 United States

Lanciato May 10, 2023 da Vandenberg Space Force Base

Loading…

Prossimi Passaggi (prossime 24 ore)

TLE

AggiornatoSource: CelesTrak SupGP

Epoca: Sep 15, 2026, 02:39 UTC

1 56466C 23064U   26258.11090278  .00007770  00000+0  65127-3 0  2585
2 56466  70.0032  26.7233 0003112 269.4710  60.4043 14.98320682    11

Traccia STARLINK-6053 in tempo reale con AllMySat

Download on the App Store